Location: Redwood Loop Observatory
(43.9900°N, 124.0900°W)
Time: 09:11:46
(UTC-08:00)

Envisat - Pass Details

Date: 22 October 2019
Orbit: 764 x 766 km, 98.1° (Epoch: 18 November)

Event Time Altitude Azimuth Distance (km) Brightness Sun altitude
Rises 20:56:46 0° 222° (SW) 3,222 6.6 -28.5°
Reaches altitude 10° 21:01:08 10° 258° (WSW) 2,304 6.2 -29.3°
Maximum altitude 21:02:25 11° 273° (W) 2,244 6.3 -29.5°
Drops below altitude 10° 21:03:43 10° 288° (WNW) 2,308 6.4 -29.8°
Sets 21:08:08 0° 325° (NW) 3,242 6.9 -30.5°
